Skip Page Navigation
NASA JPL Caltech
NASA Logo - Jet Propulsion Laboratory + View the NASA Portal
+ Near-Earth Object (NEO) Program
Search JPL
JPL Home Earth Solar System Stars & Galaxies Technology
JPL Solar System Dynamics
BODIES ORBITS EPHEMERIDES TOOLS PHYSICAL DATA DISCOVERY FAQ SITE MAP
JPL Small-Body Database Browser
Search: [ help ]  
19989 (1990 RN8)
Classification: Main-belt Asteroid          SPK-ID: 2019989
Ephemeris | Orbit Diagram | Orbital Elements | Physical Parameters | Discovery Circumstances ]

[ show orbit diagram ]
Orbital Elements at Epoch 2457000.5 (2014-Dec-09.0) TDB
Reference: JPL 9 (heliocentric ecliptic J2000)
 Element Value Uncertainty (1-sigma)   Units 
e .08914784069601343 5.9128e-08  
a 2.710754780660494 2.4677e-08 AU
q 2.469096845308215 1.5973e-07 AU
i 3.097348642060128 6.8093e-06 deg
node 168.0517494893214 0.00010884 deg
peri 221.5298024413028 0.00011574 deg
M 119.8492341399531 3.6692e-05 deg
tp 2456457.791607259151
(2013-Jun-14.29160726)
0.00016719 JED
period 1630.17329888448
4.46
2.226e-05
6.094e-08
d
yr
n .2208354168519054 3.0155e-09 deg/d
Q 2.952412716012772 2.6877e-08 AU
  Orbit Determination Parameters
   # obs. used (total)      809  
   data-arc span      8616 days (23.59 yr)  
   first obs. used      1990-08-16  
   last obs. used      2014-03-19  
   planetary ephem.      DE431  
   SB-pert. ephem.      SB431-BIG16  
   condition code      0  
   fit RMS      .59115  
   data source      ORB  
   producer      Otto Matic  
   solution date      2014-Jun-16 14:06:43  

Additional Information
 Earth MOID = 1.47469 AU 
 T_jup = 3.355 
[ show covariance matrix ]

Ephemeris | Orbit Diagram | Orbital Elements | Physical Parameters | Discovery Circumstances ]

Physical Parameter Table
Parameter Symbol Value Units Sigma Reference Notes
absolute magnitude H 14.2 mag n/a MPO247535  

19989 (1990 RN8)          Discovered 1990-Sep-15 by Debehogne, H. at La Silla (809)
Reference: 20010109/Numbers.arcLast Updated: 2004-04-19

Alternate Designations
 1990 RN8 = 1986 WF4 = 1999 RN27 
Ephemeris | Orbit Diagram | Orbital Elements | Physical Parameters | Discovery Circumstances ]
ABOUT SSD CREDITS/AWARDS PRIVACY/COPYRIGHT GLOSSARY LINKS
FirstGov 2014-Nov-27 05:33 UT
(server date/time)  
NASA Home Page
Site Manager:   Donald K. Yeomans
Webmaster  Alan B. Chamberlin